星链-3835 (STARLINK-3835 )

导读

STARLINK-3835是美国SpaceX公司星链(Starlink)星座中的卫星,星链计划旨在构建全球卫星互联网星座。该卫星于2022年5月6日8点发射升空,加入近地轨道卫星网络,为全球偏远地区、移动载体提供低延迟宽带互联网服务,持续推进全球卫星通信网络的覆盖与组网进程。

基本信息
目录编号:
52476
目录名称:
STARLINK-3835
国际标识:
2022-049AB
轨道中心:
EARTH
卫星名称:
星链-3835
卫星全名:
星链-3835 (STARLINK-3835 )
卫星状态:
在轨 (已飞行1582 天)
发射日期:
2022-05-06 UTC
国别 :
美国 (US)
星等 :
--
轨道信息
数据来源 国际轨道数据 AOE轨道数据
星历时间 2026-09-04T12:52:00+0800
4小时前
查看轨道信息
2026-09-03T18:00:00+0800
23小时前
查看轨道信息
半长轴 6837.887km 6837.869km
偏心率 0.000116 0.0001168
轨道倾角 53.162° 53.160°
近地点辐角 84.954° 70.204°
升交点赤经 320.491° 324.173°
平近点角 275.159° 262.303°
近地点 458.956km 458.933km
远地点 460.544km 460.531km
周期 93.787分钟 93.787分钟
每日圈数 15.353942 15.354003
详细信息
固有亮度:
5
最大亮度:
2.5
卫星平台:
Starlink v1.5
覆盖范围:
全球
运营商:
太空探索技术公司
运营商所在国:
美国
制造商(研发单位):
太空探索技术公司
制造商所在国:
美国
使用方式:
暂无
卫星简介
星链(Starlink)计划是由太空探索技术公司(SpaceX)提出的一个巨型低轨卫星互联网星座项目,计划在2019年至2024年间在太空搭建由约1.2万颗卫星组成的“星链”网络,其中1584颗将部署在地球上空550千米处的近地轨道,并从2020年开始工作。该卫星仍在工作。
2D轨道图
3D轨道图
轨道高度分析图
轨道倾角分析图
轨道综合分析图
查看轨道综合分析图
交会数据列表
事件ID 空间交会对象 最接近时刻(TCA) 交会距离 交会风险概率(CRP) 交会风险指数(CRI) 操作
CDM_260906-091405-247606-816821
2026-09-06T
09:14:52+0000
2.870 km
极远距离
1.263522E-6 低风险 0.37
CDM_260906-114705-247606-568621
2026-09-06T
11:47:13+0000
2.710 km
极远距离
1.163553E-6 低风险 0.36
CDM_260905-115505-247606-230821
2026-09-05T
11:55:29+0000
2.901 km
极远距离
1.157956E-6 低风险 0.36
CDM_260904-205605-247606-427221
2026-09-04T
20:56:22+0000
2.828 km
极远距离
7.594105E-7 极低风险 0.33
CDM_260906-045105-247606-422121
2026-09-06T
04:51:40+0000
2.872 km
极远距离
6.333898E-7 极低风险 0.31
CDM_260906-032305-247606-602121
2026-09-06T
03:23:11+0000
2.981 km
极远距离
6.113485E-7 极低风险 0.31